Find GPS III SV07

NORAD ID: 62339 Int'l Des: 2024-242 Owner: SFSSC Country: US Constellation: GPS operational
MEOCIRCULARGNSS

当前视图

正在加载3D地球...

About GPS III SV07

GPS III SV07 (NORAD 62339) is a GPS constellation satellite launched Dec 17, 2024 by SFSSC of US. It operates in MEO, CIRCULAR, GNSS orbit with a mass of 4352.00 kg.

关于 GPS III SV07

正在加载描述...

即将过境

Passes for default location (London). Set your location on the main map for personalized predictions.

高度历史

Loading altitude history...

两行轨道根数

1 62339U 24242A 26164.36763876 -.00000075 00000-0 00000+0 0 9994
2 62339 54.8503 334.3363 0017188 3.9293 7.0837 2.00571230 11182
Epoch: Jun 13, 2026 • Age: 57 hours

当前状态

高度 20196.4 km
速度 3.87 km/s
星下点 -53.70°S, 92.59°E
发射日期 Dec 17, 2024
运行时间 1.4 years
类型 navigation

技术详情

分类 Payload
质量 4352.00 kg
干质量 2160.00 kg
总质量 4352.00 kg
长度 3.40 m
直径 1.80 m
跨度 14.00 m
形状 Box + 2 pan
制造商 LMSSD
平台类型 A2100
阶段状态 In Orbit
所有者/国家 SFSSC/US

Most Searched